World > North America > United States > New York   Town of Rhinebeck, NY

Hourly Rhinebeck, NY Regional Weather

Feedback E-mail the Weather

Latest News

Rhinebeck, NY Weather Maps

°F °C°F °C
Rhinebeck Weather Map
UTC Time: 5/26/2022, 20:58
Your Time:

Rhinebeck, NY Regional Weather

Expires:202205262100;;617944
ASUS41 KALY 262010
RWRALY

NEW YORK STATE HOURLY WEATHER ROUNDUP
NATIONAL WEATHER SERVICE ALBANY NY
400 PM EDT THU MAY 26 2022

NOTE: "FAIR" INDICATES FEW OR NO CLOUDS BELOW 12,000 FEET WITH NO
SIGNIFICANT WEATHER AND/OR NO OBSTRUCTIONS TO VISIBILITY.


NYZ032-033-038>043-046>054-057>066-NYZ062>081-082-084-262100-
EAST

  
CITY           SKY/WX    TMP DP  RH WIND       PRES   REMARKS
ALBANY         PTSUNNY   72  52  49 S21G28    30.08F                  
GLENS FALLS    PTSUNNY   72  51  47 SW14G24   30.06F                  
POUGHKEEPSIE   CLOUDY    73  53  49 SW10G18   30.14F                  
NEWBURGH       CLOUDY    70  54  56 SW13G20   30.17F                  
MONTGOMERY     CLOUDY    70  56  61 S12       30.14F                  
WHITE PLAINS   MOSUNNY   67  53  61 S13       30.20F                  
ISLIP          CLOUDY    65  56  72 S9        30.22F                  
NEW YORK CITY  PTSUNNY   69  54  58 S17       30.20F                  
CENTRAL PARK   MOSUNNY   67  55  65 VRB6      30.23F                  
$$


SKY/WX - Weather  TMP - Temperature  DP - Dew Point  RH - Humidity
WIND - Wind Direction/Speed PRES - Barometric Pressure VSB - Visibility
WCI - Wind Chill Index E13G22 Wind - East Wind 13 mph/Gusts of 22 mph

Trending Headlines

Rhinebeck Radar Loop



Rhinebeck Quick Facts


National Two Day Weather Forecast


E-mail the Rhinebeck Weather Forecast

Voice your opinion or tell us about page issues...